Weather History for Smyrna, TN

Change the Weather History Date:

Sunday, May 11, 2014

  Actual Average Record
Temperature  
Mean Temperature 71 °F -  
Max Temperature 84 °F 75 °F 92 °F (2011)
Min Temperature 60 °F 57 °F 43 °F (2012)
Cooling Degree Days 6    
Growing Degree Days 21 (Base 50)    
Moisture  
Dew Point 65 °F    
Average Humidity 86    
Maximum Humidity 100    
Minimum Humidity 60    
Precipitation  
Precipitation 0.00 in - - ()
Sea Level Pressure  
Sea Level Pressure 30.08 in    
Wind  
Wind Speed 3 mph (South)    
Max Wind Speed 12 mph    
Max Gust Speed 17 mph    
Visibility 6 miles    
Events Fog    
Averages and records for this station are not official NWS values.
T = Trace of Precipitation, MM = Missing Value Source: NWS Daily Summary

Daily Weather History Graph

Daily Weather History Graph

Search for Another Location

Airport:

Trip Planner

Search our weather history database for the weather conditions in past years. The results will help you decide how hot, cold, wet, or windy it might be!

Date:

Astronomy

May. 11, 2014 Rise Set
Actual Time 5:43 AM CDT 7:41 PM CDT
Civil Twilight 5:15 AM CDT 8:10 PM CDT
Nautical Twilight 4:41 AM CDT 8:44 PM CDT
Astronomical Twilight 4:04 AM CDT 9:21 PM CDT
Moon 4:42 PM CDT (5/11) 3:41 AM CDT (5/11)
Length of Visible Light 14h 54m
Length of Day
13h 58m
Waxing Gibbous, 89% of the Moon is Illuminated
May 11
Waxing Gibbous
May 14
Full
May 21
Last Quarter
May 28
New
Jun 5
First Quarter

Hourly Weather History & Observations

Time (CDT) Temp. Heat Index Dew Point Humidity Pressure Visibility Wind Dir Wind Speed Gust Speed Precip Events Conditions
12:56 AM 66.9 °F - 64.9 °F 93% 30.07 in 10.0 mi Calm Calm - N/A   Clear
1:56 AM 64.9 °F - 64.9 °F 100% 30.06 in 10.0 mi Calm Calm - N/A   Clear
2:56 AM 64.9 °F - 64.9 °F 100% 30.07 in 10.0 mi Calm Calm - N/A   Clear
4:34 AM 60.8 °F - 60.8 °F 100% 30.07 in 1.5 mi Calm Calm - N/A   Clear
4:36 AM 60.8 °F - 60.8 °F 100% 30.07 in 0.8 mi Calm Calm - N/A   Clear
4:41 AM 60.8 °F - 60.8 °F 100% 30.07 in 0.2 mi Calm Calm - N/A Fog Fog
4:56 AM 61.0 °F - 61.0 °F 100% 30.09 in 0.2 mi Calm Calm - N/A Fog Fog
5:20 AM 60.8 °F - 60.8 °F 100% 30.07 in 0.5 mi Calm Calm - N/A Fog Fog
5:31 AM 60.8 °F - 60.8 °F 100% 30.07 in 1.0 mi SSE 5.8 mph - N/A   Clear
5:33 AM 60.8 °F - 60.8 °F 100% 30.07 in 1.8 mi SSE 4.6 mph - N/A   Clear
5:46 AM 60.8 °F - 60.8 °F 100% 30.08 in 1.0 mi Calm Calm - N/A   Clear
5:56 AM 61.9 °F - 61.9 °F 100% 30.10 in 0.5 mi Calm Calm - N/A Fog Fog
6:04 AM 60.8 °F - 60.8 °F 100% 30.08 in 0.2 mi Calm Calm - N/A Fog Fog
6:15 AM 60.8 °F - 60.8 °F 100% 30.09 in 0.2 mi Calm Calm - N/A Fog Fog
6:20 AM 60.8 °F - 60.8 °F 100% 30.09 in 0.8 mi Calm Calm - N/A   Clear
6:22 AM 60.8 °F - 60.8 °F 100% 30.09 in 1.2 mi Calm Calm - N/A   Clear
6:25 AM 60.8 °F - 60.8 °F 100% 30.09 in 2.0 mi Calm Calm - N/A   Clear
6:33 AM 62.6 °F - 62.6 °F 100% 30.10 in 6.0 mi Calm Calm - N/A   Clear
7:56 AM 68.9 °F - 68.9 °F 100% 30.13 in 10.0 mi SSE 8.1 mph - N/A   Clear
8:56 AM 72.9 °F - 68.9 °F 87% 30.13 in 10.0 mi SSE 9.2 mph - N/A   Clear
9:56 AM 77.9 °F - 70.9 °F 79% 30.12 in 10.0 mi SSE 9.2 mph - N/A   Partly Cloudy
10:56 AM 79.0 °F - 70.0 °F 74% 30.13 in 10.0 mi SSW 5.8 mph - N/A   Scattered Clouds
11:56 AM 79.9 °F - 68.9 °F 69% 30.13 in 10.0 mi SSW 8.1 mph - N/A   Scattered Clouds
12:14 PM 80.6 °F 83.9 °F 69.8 °F 70% 30.11 in 10.0 mi South 10.4 mph - N/A   Mostly Cloudy
12:56 PM 81.9 °F 85.2 °F 68.9 °F 65% 30.12 in 10.0 mi South 10.4 mph 17.3 mph N/A   Scattered Clouds
1:56 PM 81.0 °F 83.8 °F 68.0 °F 65% 30.09 in 10.0 mi SSW 8.1 mph - N/A   Mostly Cloudy
2:56 PM 82.9 °F 86.3 °F 68.9 °F 62% 30.07 in 10.0 mi South 9.2 mph - N/A   Scattered Clouds
3:56 PM 82.9 °F 85.8 °F 68.0 °F 60% 30.04 in 10.0 mi SSE 11.5 mph 16.1 mph N/A   Mostly Cloudy
4:56 PM 82.9 °F 85.8 °F 68.0 °F 60% 30.04 in 10.0 mi South 8.1 mph - N/A   Mostly Cloudy
5:56 PM 81.9 °F 84.8 °F 68.0 °F 63% 30.04 in 10.0 mi South 9.2 mph - N/A   Clear
6:56 PM 81.0 °F 83.8 °F 68.0 °F 65% 30.04 in 10.0 mi South 8.1 mph - N/A   Clear
7:56 PM 77.9 °F - 68.0 °F 71% 30.05 in 10.0 mi South 4.6 mph - N/A   Clear
8:56 PM 75.9 °F - 68.0 °F 76% 30.07 in 10.0 mi South 4.6 mph - N/A   Clear
9:56 PM 74.8 °F - 68.0 °F 79% 30.08 in 10.0 mi South 3.5 mph - N/A   Clear
10:56 PM 73.9 °F - 68.0 °F 82% 30.08 in 10.0 mi Calm Calm - N/A   Clear
11:56 PM 72.9 °F - 68.0 °F 85% 30.08 in 10.0 mi South 5.8 mph - N/A   Clear